Temperature
22 23 23 23 23 23 23 23 22 22 22 22 22 22 22 21 21 21 21 21 20 20 19 19 18 18 18 18 18 17 17 17 16 16 16 15 15 15 15 15 14 14 14 14
23 23 23 23 23 23 23 22 22 22 22 22 22 22 22 22 21 21 21 21 20 20 19 18 18 18 18 18 18 17 17 17 16 16 16 16 15 15 15 15 14 14 14 14
23 23 23 23 22 23 23 23 23 22 21 22 22 22 22 22 21 21 21 21 20 20 19 19 18 18 18 18 17 17 17 17 16 16 16 16 15 15 15 14 14 14 14 14
23 23 22 23 23 23 22 23 22 22 22 22 22 22 23 22 22 22 21 20 20 19 19 19 18 18 18 18 17 17 17 16 16 16 16 15 15 15 15 15 14 14 14 14
22 23 23 22 22 22 22 22 22 22 22 22 22 23 23 23 22 22 22 21 20 19 19 19 18 18 18 18 17 17 17 16 16 16 16 15 15 15 15 15 14 14 14 14
23 22 23 22 22 22 22 22 22 22 22 22 23 23 23 23 23 23 22 21 20 19 19 19 18 18 18 17 17 17 17 16 16 16 16 16 15 15 15 15 15 14 14 14
22 22 22 22 22 21 22 22 21 21 21 22 23 23 23 24 23 23 22 21 21 20 19 18 18 18 18 17 17 17 17 16 16 16 16 16 15 15 15 15 15 14 14 14
22 22 22 22 22 22 22 23 22 21 22 22 22 23 23 23 22 22 22 21 20 19 19 18 18 18 18 17 17 17 17 17 16 16 16 16 16 15 15 15 14 14 14 14
23 22 22 22 22 23 22 23 23 23 23 23 23 23 23 22 22 22 21 21 20 19 19 19 18 18 18 18 17 17 17 17 16 16 16 16 16 15 15 15 14 14 14 14
23 22 22 22 22 22 23 23 23 23 22 22 23 23 23 23 22 22 21 21 20 19 19 18 18 18 18 18 17 17 17 17 16 16 16 16 16 15 15 15 14 14 14 14
23 23 22 22 22 23 22 23 23 23 23 23 22 23 24 24 23 23 22 21 20 19 19 18 18 18 18 17 17 17 17 17 16 16 16 16 16 15 15 15 15 14 14 14
23 23 23 23 23 23 23 24 23 23 23 23 23 23 23 24 23 23 22 21 20 19 19 18 18 18 17 17 17 17 17 17 16 16 16 16 16 15 15 15 14 14 14 14
23 23 23 22 22 22 23 23 23 24 23 23 23 23 23 23 23 22 21 20 19 19 18 18 18 17 17 17 17 17 17 17 16 16 16 16 15 15 15 15 15 14 14 14
22 23 23 23 23 23 23 22 23 23 23 23 23 24 23 23 22 22 21 20 19 19 18 18 17 17 17 17 17 17 17 16 16 16 16 16 15 15 15 15 14 14 14 14
23 23 24 24 23 23 23 23 23 23 24 24 24 24 24 24 23 22 20 20 19 18 18 18 17 17 17 17 17 17 17 16 16 16 16 16 15 15 15 14 14 14 14 14
23 23 23 23 23 23 23 23 23 23 23 24 24 24 24 23 22 22 21 19 19 18 18 18 17 17 17 17 17 17 17 16 16 16 16 16 15 15 15 14 14 14 14 13
23 23 23 23 23 23 22 23 23 23 23 24 24 24 24 22 22 21 21 19 19 19 18 18 18 17 17 17 17 17 17 16 16 16 16 15 15 15 14 14 14 14 13 13
23 23 23 23 23 21 24 23 23 23 23 24 24 24 23 22 21 20 20 20 19 18 18 18 17 17 17 17 17 16 16 16 16 15 15 15 15 14 14 14 13 13 13 13
22 23 23 23 22 22 23 23 22 23 23 24 24 23 22 21 20 20 19 19 19 18 18 18 17 17 17 17 16 16 16 16 15 15 15 15 14 14 14 13 13 13 13 12
20 22 23 22 22 22 23 23 22 23 23 24 23 23 21 20 22 22 19 18 18 17 17 17 17 17 17 17 16 16 16 15 15 15 15 14 14 14 13 13 13 13 12 12
20 21 21 22 22 23 23 21 21 22 24 23 22 22 21 22 23 21 19 18 18 17 17 17 17 17 17 16 16 16 15 15 15 15 14 14 14 13 13 13 12 12 12 12
21 21 21 22 21 22 22 21 22 23 22 21 21 21 20 20 19 18 18 17 17 17 17 17 17 16 16 16 16 15 15 15 15 14 14 14 13 13 13 12 12 12 12 11
21 22 22 22 22 22 20 21 21 20 21 20 20 20 19 19 18 17 17 17 17 17 17 17 16 16 16 16 15 15 15 15 14 14 13 13 13 12 12 12 12 11 11 11
20 19 20 21 21 20 19 19 19 19 19 19 19 19 18 18 17 17 17 17 16 16 16 16 16 16 16 15 15 15 14 14 14 13 13 13 12 12 12 12 11 11 11 10
20 19 20 21 21 19 19 18 18 18 18 18 18 18 18 18 17 17 17 16 16 16 16 15 15 15 15 15 15 14 14 14 13 13 12 12 12 12 11 11 11 11 11 10
19 19 20 21 21 21 20 18 18 18 18 18 18 17 17 17 17 17 16 16 16 16 15 15 15 15 14 14 14 14 14 13 13 12 12 12 12 11 11 11 11 11 11 10
Wind_Speed
3 5 5 5 3 3 4 5 5 4 3 5 7 7 7 7 7 7 8 9 8 8 7 6 6 6 7 7 6 6 6 6 5 4 3 3 3 3 3 3 5 5 5 6
5 5 3 3 5 6 6 7 6 5 4 3 6 6 5 6 7 7 8 8 9 8 8 7 7 7 7 7 6 6 6 5 4 3 3 2 3 2 3 3 4 5 5 5
5 3 4 6 7 7 6 6 6 6 6 4 5 6 7 6 5 6 7 7 8 9 9 8 8 8 7 7 6 5 5 5 4 3 3 3 3 2 2 3 3 4 5 5
3 3 5 6 6 6 4 3 5 7 6 5 5 5 8 8 8 8 9 9 9 9 9 8 8 9 8 7 7 6 6 5 4 4 2 2 2 2 3 2 3 3 4 4
3 4 5 6 4 4 3 5 6 6 4 4 6 4 6 8 10 10 10 10 9 10 10 9 9 9 8 8 7 6 6 5 4 3 3 2 2 2 2 2 2 3 3 4
2 2 2 3 3 4 7 7 6 5 5 5 6 5 5 7 10 10 11 11 11 10 10 10 9 9 8 8 7 6 6 5 4 3 3 2 2 1 1 2 2 2 2 3
5 5 3 4 6 7 7 7 4 5 5 4 4 5 3 4 5 8 11 12 12 11 11 11 11 10 10 9 8 7 6 5 4 4 3 2 2 1 1 2 2 2 2 3
5 6 6 5 6 7 9 8 4 3 3 3 5 5 2 3 4 7 9 11 12 12 11 11 11 11 10 10 9 8 7 6 5 4 3 2 2 1 1 1 2 2 3 3
4 4 5 4 4 6 7 6 3 2 2 3 4 3 3 4 6 9 10 11 12 12 12 12 11 10 10 10 9 8 7 6 5 4 3 2 2 1 1 1 2 2 2 3
3 4 6 5 5 3 4 5 5 5 3 3 3 4 4 8 9 11 12 12 13 13 12 12 11 10 10 9 9 8 7 6 5 5 4 3 2 2 1 1 2 2 3 3
5 4 6 7 7 8 7 7 6 5 4 3 2 2 1 6 9 12 13 13 13 13 13 11 10 10 10 9 9 8 7 6 5 5 4 3 2 2 1 1 2 2 2 2
6 4 5 6 3 3 7 8 8 6 5 4 3 1 3 4 7 10 12 12 12 12 12 11 10 10 10 10 9 9 8 6 5 5 4 3 3 2 1 1 1 1 2 2
7 5 5 6 5 6 7 8 9 7 5 5 5 2 4 4 6 8 11 12 12 12 12 11 11 11 11 10 9 9 8 6 6 5 4 4 3 2 1 1 1 1 1 2
6 6 6 4 1 5 7 9 10 10 7 7 8 5 4 6 7 9 10 12 12 12 12 12 11 11 10 10 9 9 8 6 6 5 4 4 3 2 1 1 0 1 1 2
6 6 6 5 2 4 7 9 11 12 11 9 7 7 7 7 9 10 11 12 13 13 13 13 12 11 11 10 9 8 7 7 6 6 5 4 3 2 2 1 1 1 1 2
6 6 6 6 5 6 7 9 10 11 11 11 9 9 6 4 7 10 12 13 14 14 13 13 13 12 12 11 10 9 8 7 7 6 4 4 3 3 2 1 1 2 1 2
7 7 7 7 5 5 8 10 11 11 11 11 11 9 6 7 10 12 13 14 14 14 14 13 13 13 12 12 11 10 9 8 7 6 5 4 4 3 2 2 2 1 1 2
7 9 6 6 6 8 3 1 6 9 10 11 9 6 7 8 7 8 10 13 14 14 14 13 12 12 11 11 11 10 9 8 7 6 5 4 3 3 2 2 1 1 0 1
6 7 6 6 8 7 5 4 5 7 8 9 10 8 7 6 7 7 9 11 12 13 12 12 12 12 11 11 10 10 9 8 7 6 5 5 4 3 3 2 1 1 0 0
4 7 7 7 7 7 3 3 4 5 6 5 8 9 10 10 9 7 10 11 11 11 10 11 11 11 11 10 10 10 9 8 7 6 5 5 4 4 3 2 1 1 1 1
7 7 10 11 10 7 2 4 5 7 3 2 6 9 12 11 6 6 11 11 11 11 11 11 11 11 10 10 11 10 9 8 7 6 6 5 4 4 3 2 2 1 1 1
9 8 10 10 10 8 4 7 6 3 2 1 4 7 10 8 5 8 11 11 12 12 12 12 11 10 9 10 10 9 8 7 7 6 6 5 4 3 3 3 2 2 2 2
7 7 5 7 5 1 4 5 3 2 2 2 3 5 8 8 8 9 11 11 11 12 11 11 11 10 9 9 9 9 8 7 7 7 6 5 5 4 3 3 3 2 2 3
5 3 4 5 5 4 4 5 5 4 4 3 3 5 8 9 9 10 10 10 11 11 10 10 11 11 9 8 8 7 8 8 8 7 6 5 5 4 3 2 3 3 3 3
4 5 5 7 5 3 5 5 4 3 3 3 3 5 8 9 10 10 10 10 10 10 10 10 10 10 10 9 8 7 7 8 7 7 6 5 4 3 3 3 2 3 3 3
6 7 7 7 5 4 3 2 2 3 3 4 5 6 7 8 9 10 10 10 10 10 10 10 10 10 9 9 8 8 7 8 7 6 5 4 4 3 3 3 3 2 3 2
Wind_Direction
178 192 179 172 182 165 161 165 157 137 139 167 162 156 157 160 170 177 173 169 164 157 147 144 145 146 145 138 134 128 130 128 129 122 119 111 99 84 72 53 46 33 21 15
183 182 166 154 163 173 173 169 160 136 139 169 160 161 160 174 183 188 182 173 168 164 159 152 150 151 150 143 141 139 138 137 131 114 107 101 89 78 66 52 44 29 23 20
188 134 152 168 169 175 184 187 170 153 150 164 164 178 181 180 189 192 193 183 176 178 172 162 160 155 153 152 150 149 146 140 130 127 117 117 111 114 90 63 43 28 27 31
193 169 179 181 177 189 178 164 167 166 177 171 203 193 190 189 191 193 191 188 184 180 178 170 167 163 161 153 150 153 151 145 145 150 146 127 99 75 61 41 43 44 39 34
162 172 180 179 180 191 150 148 166 178 191 192 204 224 177 186 199 197 193 190 185 181 179 174 171 167 162 155 153 153 152 149 149 154 145 158 111 83 69 58 55 38 48 37
169 169 205 172 145 158 148 151 155 186 212 218 205 225 191 188 203 191 188 189 183 179 177 173 165 162 159 156 155 156 157 151 155 162 167 158 124 105 71 54 43 39 48 39
178 175 160 162 153 163 192 188 189 197 208 209 178 227 216 171 194 193 186 186 182 177 175 171 167 166 164 162 162 162 161 160 163 171 171 152 147 133 70 36 37 22 30 28
192 179 179 189 200 191 198 217 230 224 209 176 187 222 168 142 180 187 184 179 176 174 174 172 172 170 167 166 166 166 165 162 164 171 162 151 140 121 69 40 24 20 21 23
203 177 153 178 195 198 192 211 251 262 222 219 191 192 179 156 167 171 172 171 175 175 174 172 171 170 167 167 169 170 166 164 165 165 153 145 132 107 73 36 29 25 25 24
213 191 165 163 172 186 229 193 205 231 227 220 201 211 195 173 175 174 175 177 175 174 172 171 170 169 168 167 168 167 166 164 163 159 149 142 143 125 74 39 35 28 26 24
218 209 170 181 207 198 184 197 217 229 247 250 221 174 153 182 180 181 181 178 174 172 172 170 169 167 164 163 164 165 166 165 163 161 154 147 142 130 107 65 44 32 25 17
207 228 203 193 181 236 222 219 217 224 216 233 255 143 101 176 177 180 178 174 172 171 170 168 165 163 163 164 165 166 165 162 161 163 160 153 152 149 148 82 43 30 26 17
183 219 205 183 189 193 212 217 222 232 234 229 233 177 129 154 166 171 172 170 169 170 168 166 164 165 165 165 166 166 165 161 159 160 160 158 163 162 162 119 44 6 8 15
200 224 235 230 208 186 203 205 211 218 229 229 231 230 196 188 180 175 173 172 170 171 170 168 166 166 166 167 166 165 164 161 160 162 160 159 160 164 174 151 96 0 353 354
211 230 230 245 230 206 218 213 209 221 237 246 242 238 234 212 198 183 175 173 172 173 173 173 172 169 168 168 167 165 166 166 164 164 163 160 153 149 151 134 102 46 11 355
212 228 224 225 214 219 230 231 222 227 236 241 244 250 248 214 191 181 179 176 177 178 178 177 174 171 171 170 168 167 170 170 167 164 159 152 155 145 142 137 104 72 44 17
201 217 224 228 203 223 243 235 224 220 223 226 235 240 203 190 186 186 184 183 183 181 179 178 177 175 175 174 172 171 170 168 169 164 154 156 155 148 152 146 118 94 67 34
212 216 225 236 218 242 256 193 232 229 233 230 239 234 206 199 189 189 188 185 183 180 178 178 177 175 175 172 171 169 167 169 170 164 158 155 155 151 151 151 137 145 52 33
225 214 219 229 242 257 248 216 208 217 238 231 228 217 196 169 162 181 187 189 185 179 176 175 175 171 170 170 169 168 169 170 169 166 164 160 157 153 151 153 172 218 278 338
202 219 225 221 237 249 252 168 197 225 241 220 212 202 185 174 195 195 177 177 175 171 168 166 166 165 167 167 167 169 170 171 172 169 167 159 158 160 164 168 183 201 243 270
188 203 220 228 240 253 249 146 174 216 247 169 199 195 187 195 210 153 157 164 163 161 160 159 160 163 164 163 166 170 170 172 168 163 160 156 161 167 169 169 181 199 233 266
209 208 217 225 236 244 158 166 203 256 11 171 198 195 194 192 146 140 151 155 156 155 156 158 158 157 158 163 167 166 167 164 157 156 158 161 165 169 171 174 191 213 233 251
222 228 226 223 235 352 176 216 270 307 278 248 205 190 184 175 164 155 155 154 155 155 156 158 156 153 156 164 170 166 163 161 157 158 162 166 169 172 182 194 204 222 239 260
203 216 223 234 248 250 244 254 257 260 261 256 225 192 179 175 167 161 158 157 155 155 156 158 158 157 157 162 166 163 159 161 164 166 170 172 179 184 191 208 228 240 251 261
215 190 221 241 252 260 247 243 250 255 249 222 193 185 181 171 167 165 162 160 157 155 155 159 162 161 159 159 161 160 162 166 171 174 179 183 188 197 209 214 240 252 256 276
212 212 224 239 239 243 256 257 251 235 221 199 175 168 172 171 166 163 161 159 157 155 156 159 161 160 159 159 160 161 165 173 177 180 186 190 193 199 214 225 230 241 255 264
Height
1521 1520 1519 1518 1519 1520 1522 1525 1528 1529 1531 1531 1532 1534 1536 1539 1541 1543 1544 1546 1549 1552 1554 1556 1557 1558 1560 1561 1562 1563 1564 1564 1564 1565 1566 1566 1566 1566 1565 1564 1564 1562 1561 1560
1519 1519 1518 1520 1521 1522 1523 1526 1528 1530 1531 1531 1532 1534 1536 1539 1540 1542 1543 1546 1548 1551 1553 1555 1557 1558 1560 1561 1562 1563 1564 1565 1565 1565 1566 1566 1566 1566 1566 1565 1564 1563 1562 1560
1517 1519 1520 1521 1522 1523 1524 1525 1526 1530 1532 1531 1533 1537 1535 1537 1540 1542 1543 1545 1547 1550 1552 1554 1556 1558 1560 1561 1562 1563 1564 1565 1566 1566 1567 1566 1566 1567 1567 1566 1565 1563 1562 1561
1517 1519 1520 1520 1521 1522 1526 1524 1526 1529 1531 1534 1533 1539 1533 1533 1536 1539 1541 1544 1546 1549 1551 1553 1555 1557 1559 1561 1562 1564 1565 1566 1566 1567 1567 1568 1568 1568 1567 1567 1565 1564 1563 1562
1517 1518 1519 1521 1522 1522 1525 1526 1526 1528 1529 1532 1531 1534 1530 1530 1533 1534 1538 1541 1544 1547 1550 1552 1554 1557 1559 1561 1562 1564 1565 1566 1567 1567 1567 1568 1569 1568 1568 1567 1566 1565 1564 1562
1517 1519 1519 1520 1523 1524 1525 1527 1528 1528 1529 1538 1530 1532 1531 1526 1526 1529 1534 1539 1542 1546 1549 1551 1553 1556 1558 1560 1562 1563 1565 1566 1567 1567 1568 1568 1568 1568 1568 1567 1567 1566 1565 1563
1518 1518 1520 1521 1523 1526 1525 1527 1536 1538 1539 1535 1527 1530 1526 1521 1524 1527 1531 1536 1540 1544 1547 1550 1552 1555 1557 1559 1561 1563 1564 1566 1566 1567 1568 1569 1568 1568 1568 1568 1567 1566 1565 1564
1519 1521 1518 1519 1519 1521 1521 1522 1532 1539 1538 1531 1528 1528 1521 1522 1525 1527 1531 1534 1539 1542 1545 1548 1551 1553 1556 1558 1561 1563 1564 1565 1566 1567 1568 1568 1568 1568 1568 1567 1567 1566 1565 1564
1515 1517 1515 1518 1519 1518 1521 1521 1519 1523 1525 1529 1525 1521 1519 1521 1524 1526 1530 1533 1537 1540 1544 1547 1550 1552 1555 1558 1560 1562 1564 1565 1566 1567 1567 1568 1568 1568 1568 1567 1567 1566 1565 1564
1510 1516 1514 1518 1519 1520 1517 1516 1521 1523 1533 1534 1527 1523 1519 1519 1521 1524 1528 1531 1535 1539 1542 1545 1548 1551 1554 1557 1559 1561 1563 1564 1565 1566 1567 1567 1567 1567 1567 1567 1566 1566 1565 1564
1509 1513 1516 1516 1516 1515 1518 1519 1518 1518 1520 1528 1531 1524 1510 1513 1516 1520 1525 1529 1533 1537 1540 1544 1547 1550 1552 1555 1558 1560 1562 1564 1565 1566 1566 1567 1567 1567 1567 1567 1566 1565 1564 1563
1508 1509 1511 1512 1511 1512 1511 1511 1514 1521 1522 1520 1523 1522 1511 1512 1516 1519 1523 1528 1532 1535 1539 1542 1545 1548 1551 1554 1557 1559 1561 1562 1564 1564 1565 1566 1566 1566 1566 1566 1566 1565 1564 1563
1507 1509 1514 1516 1517 1514 1512 1511 1511 1511 1514 1517 1522 1520 1512 1514 1516 1519 1523 1527 1530 1534 1537 1541 1544 1546 1549 1552 1555 1558 1560 1561 1563 1563 1564 1565 1565 1566 1566 1566 1565 1564 1564 1563
1506 1504 1507 1513 1508 1506 1509 1511 1511 1511 1514 1515 1514 1512 1511 1512 1515 1518 1522 1525 1529 1532 1536 1539 1542 1545 1548 1551 1554 1556 1558 1560 1561 1562 1563 1564 1564 1564 1564 1564 1564 1564 1563 1562
1504 1502 1501 1501 1503 1504 1505 1506 1509 1509 1506 1508 1507 1507 1506 1507 1512 1516 1520 1524 1527 1530 1534 1537 1539 1543 1546 1549 1552 1554 1557 1559 1560 1561 1562 1563 1563 1563 1563 1563 1563 1562 1562 1561
1501 1501 1501 1502 1502 1504 1506 1504 1505 1506 1505 1504 1505 1505 1502 1507 1510 1514 1517 1521 1524 1527 1531 1534 1537 1540 1544 1547 1550 1552 1555 1557 1558 1560 1560 1561 1561 1562 1562 1562 1562 1561 1560 1559
1498 1499 1502 1502 1502 1504 1506 1500 1500 1501 1500 1500 1502 1501 1502 1506 1508 1510 1514 1518 1521 1524 1528 1531 1535 1538 1542 1545 1548 1550 1553 1555 1557 1558 1559 1559 1560 1560 1560 1560 1560 1559 1559 1558
1496 1497 1498 1500 1505 1514 1498 1494 1495 1496 1497 1497 1496 1498 1501 1504 1507 1510 1512 1515 1518 1522 1525 1529 1532 1536 1540 1543 1546 1549 1551 1553 1555 1556 1557 1558 1558 1559 1559 1559 1558 1558 1557 1556
1496 1496 1498 1501 1505 1501 1495 1494 1495 1496 1495 1493 1495 1497 1501 1504 1507 1509 1511 1513 1516 1519 1523 1526 1530 1534 1538 1541 1544 1546 1549 1551 1553 1554 1555 1556 1557 1557 1557 1557 1557 1556 1556 1555
1498 1495 1495 1499 1505 1506 1494 1491 1493 1495 1494 1491 1492 1495 1498 1502 1502 1504 1507 1510 1514 1517 1521 1524 1528 1532 1535 1538 1541 1544 1547 1549 1550 1552 1553 1554 1555 1555 1555 1555 1555 1554 1554 1553
1497 1497 1497 1497 1499 1493 1488 1492 1494 1498 1491 1489 1490 1493 1496 1497 1498 1501 1504 1508 1511 1515 1518 1522 1526 1529 1532 1536 1539 1542 1544 1546 1548 1550 1551 1552 1553 1553 1553 1553 1553 1552 1552 1551
1488 1492 1493 1493 1498 1495 1488 1491 1490 1488 1487 1489 1490 1492 1494 1497 1499 1500 1503 1506 1509 1513 1516 1520 1524 1527 1531 1534 1537 1539 1542 1544 1546 1547 1549 1550 1550 1551 1551 1551 1551 1550 1550 1549
1485 1484 1483 1485 1487 1486 1487 1488 1488 1488 1489 1489 1490 1491 1493 1496 1498 1500 1503 1505 1508 1511 1515 1518 1522 1526 1529 1532 1535 1537 1539 1541 1543 1545 1546 1547 1548 1548 1549 1549 1548 1548 1547 1547
1484 1487 1486 1485 1483 1485 1487 1487 1487 1488 1488 1488 1489 1490 1492 1494 1496 1499 1502 1505 1507 1510 1514 1517 1521 1524 1527 1530 1532 1535 1537 1539 1541 1542 1544 1545 1545 1546 1546 1546 1546 1545 1545 1544
1482 1485 1484 1482 1483 1484 1484 1485 1485 1486 1486 1487 1487 1489 1490 1492 1495 1497 1500 1503 1506 1509 1512 1516 1519 1522 1525 1527 1530 1532 1534 1536 1538 1540 1541 1542 1543 1543 1543 1543 1542 1542 1541 1541
1481 1482 1482 1479 1480 1481 1482 1483 1483 1483 1484 1485 1486 1487 1489 1491 1493 1496 1499 1502 1505 1508 1511 1514 1517 1520 1523 1525 1528 1530 1532 1534 1536 1537 1538 1539 1539 1539 1539 1539 1539 1538 1538 1537